Tracking 20472 objects as of 28-Feb-2020
HD Live streaming from Space Station
objects crossing your sky now

NAVSTAR 9 (USA 1)

Track NAVSTAR 9 (USA 1) now!
NAVSTAR 9 (USA 1) is classified as:


NORAD ID: 15039
Int'l Code: 1984-059A
Perigee: 20,392.3 km
Apogee: 21,496.9 km
Inclination: 62.3 °
Period: 748.8 minutes
Semi major axis: 27315 km
RCS: 0.4653 m2 (medium)
Launch date: June 13, 1984
Source: United States (US)
Launch site: AIR FORCE WESTERN TEST RANGE (AFWTR)
aabbcc
Your satellite tracking list
Your tracking list is empty




NASA's NSSDC Master Catalog

Two Line Element Set (TLE):
1 15039U 84059A   20058.39831965 +.00000012 +00000-0 +00000-0 0  9996
2 15039 062.3405 131.3159 0202199 039.4458 031.2274 01.92303285253876
Source of the keplerian elements: AFSPC